(238549) = 2004 VB75

Discovered at Catalina on 2004-11-12 by CSS.

Orbit

Orbit type: Main Belt

Note: WebGL enabled browser required.

epoch2024-03-31.0
epoch JD2460400.5
perihelion date2023-10-20.90661
perihelion JD2460238.40661
argument of perihelion (°)315.03717
ascending node (°)80.66439
inclination (°)5.03528
eccentricity0.1991448
perihelion distance (AU)1.9515347
Tisserand w.r.t. Jupiter3.5
ΔV w.r.t. Earth (km/sec)8.9
semimajor axis (AU)2.4368135
mean anomaly (°)41.99869
mean daily motion (°/day)0.25910180
aphelion distance (AU)2.922
period (years)3.8
P-vector [x]0.80937672
P-vector [y]0.56048561
P-vector [z]0.17540015
Q-vector [x]-0.58086885
Q-vector [y]0.71994820
Q-vector [z]0.37982361
absolute magnitude16.81
phase slope0.15
uncertainty0
referenceMPEC 2024-F74
observations used570
oppositions15
arc length (days)11028
first opposition used1994
last opposition used2024
residual rms (arc-secs)0.69
perturbers coarse indicatorM-v
perturbers precise indicator003Ek
first observation date used1994-01-08.0
last observation date used2024-03-19.0
computer nameMPCLINUX
JD of orbit computation2456819.577095
perihelion JD uncertainty (days)8.6781E-05
argument of perihelion uncertainty (°)5.7228E-05
ascending node uncertainty (°)5.4459E-05
inclination uncertainty (°)5.8046E-06
eccentricity uncertainty 5.4316E-08
perihelion distance uncertainty (AU)1.2776E-07
Minimum Orbit Intersection Distances (in AU)
for orbit epoch: 2460400.5, reference: E2024-F74
Mercury1.62435
Venus1.22799
Earth0.96275
Mars0.48765
Jupiter2.50123
Saturn6.70535
Uranus15.6574
Neptune27.7397

Observations

580 total observations over interval: 1994 01 08.35194 – 2024 03 19.54992
These data are available for download (format description).

Date (UT) J2000 RA J2000 Dec Magn Location Ref
1994 01 08.35194 09 00 10.68 +22 45 35.2 19.3 V 691 – Steward Observatory, Kitt Peak-Spacewatch MPS 120643
1994 01 08.38669 09 00 08.85 +22 45 48.8   691 – Steward Observatory, Kitt Peak-Spacewatch MPS 120643
1994 01 08.42218 09 00 06.71 +22 46 01.7   691 – Steward Observatory, Kitt Peak-Spacewatch MPS 120643
2000 09 23.33763 00 29 36.55 -07 30 29.4 18.2 R 699 – Lowell Observatory-LONEOS MPS 120643
2000 09 23.35306 00 29 35.75 -07 30 33.8   699 – Lowell Observatory-LONEOS MPS 120643
2000 09 23.36852 00 29 35.04 -07 30 38.8   699 – Lowell Observatory-LONEOS MPS 120643
2000 09 23.38393 00 29 34.13 -07 30 42.9   699 – Lowell Observatory-LONEOS MPS 120643
2000 10 02.26555 00 21 52.56 -08 11 36.1 17.8 R 699 – Lowell Observatory-LONEOS MPS 120643
2000 10 02.28483 00 21 51.49 -08 11 40.5   699 – Lowell Observatory-LONEOS MPS 120643
2000 10 02.28513 00 21 51.37 -08 11 40.5 19.0   704 – Lincoln Laboratory ETS, New Mexico MPS 120643
2000 10 02.29976 00 21 50.54 -08 11 43.2 18.7   704 – Lincoln Laboratory ETS, New Mexico MPS 120643
2000 10 02.30403 00 21 50.37 -08 11 44.0   699 – Lowell Observatory-LONEOS MPS 120643
2000 10 02.31463 00 21 49.73 -08 11 46.7 18.6   704 – Lincoln Laboratory ETS, New Mexico MPS 120643
2000 10 02.32330 00 21 49.34 -08 11 48.5   699 – Lowell Observatory-LONEOS MPS 120643
2000 10 02.33139 00 21 48.85 -08 11 50.8 19.0   704 – Lincoln Laboratory ETS, New Mexico MPS 120643
2004 09 12.35501 03 29 39.21 +12 29 14.0 20.1   704 – Lincoln Laboratory ETS, New Mexico MPS 120643
2004 09 12.36631 03 29 39.67 +12 29 15.4 20.1   704 – Lincoln Laboratory ETS, New Mexico MPS 120643
2004 09 12.37762 03 29 40.13 +12 29 16.9 20.2   704 – Lincoln Laboratory ETS, New Mexico MPS 120643
2004 09 12.38892 03 29 40.61 +12 29 16.4 20.2   704 – Lincoln Laboratory ETS, New Mexico MPS 120643
2004 10 07.47081 03 38 00.07 +12 50 02.1 18.9   644 – Palomar Mountain/NEAT MPS 120643
2004 10 07.48409 03 37 59.93 +12 50 02.1 18.8   644 – Palomar Mountain/NEAT MPS 120643
2004 10 07.49461 03 37 59.83 +12 50 01.9 19.1   644 – Palomar Mountain/NEAT MPS 120643
2004 11 04.34897 03 21 27.37 +12 35 10.0 18.4 R 703 – Catalina Sky Survey MPS 120643
2004 11 04.35944 03 21 26.69 +12 35 09.9 18.5 R 703 – Catalina Sky Survey MPS 120643
2004 11 04.36911 03 21 26.10 +12 35 10.0 18.1 R 703 – Catalina Sky Survey MPS 120643
2004 11 04.37899 03 21 25.56 +12 35 09.1 17.7 R 703 – Catalina Sky Survey MPS 120643
2004 11 12.28698 03 13 39.54 +12 32 23.1 18.0 R 703 – Catalina Sky Survey MPS 119925
2004 11 12.29354 03 13 39.15 +12 32 23.9 18.7 R 703 – Catalina Sky Survey MPS 119925
2004 11 12.30007 03 13 38.69 +12 32 23.0 18.6 R 703 – Catalina Sky Survey MPS 119925
2004 11 12.30659 03 13 38.31 +12 32 23.1 18.2 R 703 – Catalina Sky Survey MPS 119925
2004 11 18.21072 03 07 50.14 +12 33 06.9 18.9   704 – Lincoln Laboratory ETS, New Mexico MPS 119925
2004 11 18.22348 03 07 49.27 +12 33 07.8 18.6   704 – Lincoln Laboratory ETS, New Mexico MPS 119925
2004 11 18.23625 03 07 48.50 +12 33 08.2 18.6   704 – Lincoln Laboratory ETS, New Mexico MPS 119925
2004 11 19.28295 03 06 48.59 +12 33 36.0 17.5 R 703 – Catalina Sky Survey MPS 119925
2004 11 19.29113 03 06 48.09 +12 33 36.1 18.2 R 703 – Catalina Sky Survey MPS 119925
2004 11 19.29943 03 06 47.64 +12 33 36.1 17.5 R 703 – Catalina Sky Survey MPS 119925
2004 11 19.30772 03 06 47.10 +12 33 37.0 17.6 R 703 – Catalina Sky Survey MPS 119925
2004 12 09.27942 02 52 25.61 +13 06 48.9 19.2 R 703 – Catalina Sky Survey MPS 121190
2004 12 09.28747 02 52 25.34 +13 06 49.5 19.0 R 703 – Catalina Sky Survey MPS 121190
2004 12 09.29549 02 52 25.19 +13 06 52.0 18.7 R 703 – Catalina Sky Survey MPS 121190
2004 12 09.30350 02 52 24.89 +13 06 54.0 19.0 R 703 – Catalina Sky Survey MPS 121190
2004 12 14.19337 02 50 46.20 +13 22 49.4   704 – Lincoln Laboratory ETS, New Mexico MPS 407451
2004 12 16.06976 02 50 22.40 +13 29 47.0 19.8 V 691 – Steward Observatory, Kitt Peak-Spacewatch MPS 121783
2004 12 16.08627 02 50 22.20 +13 29 50.7 19.7 V 691 – Steward Observatory, Kitt Peak-Spacewatch MPS 121783
2004 12 16.10302 02 50 21.97 +13 29 54.6 19.6 V 691 – Steward Observatory, Kitt Peak-Spacewatch MPS 121783
2005 01 06.16347 02 54 28.38 +15 15 51.2 20.0   704 – Lincoln Laboratory ETS, New Mexico MPS 123577
2005 01 06.19025 02 54 29.13 +15 16 00.8 19.9   704 – Lincoln Laboratory ETS, New Mexico MPS 123577
2005 01 06.20368 02 54 29.54 +15 16 04.8 20.2   704 – Lincoln Laboratory ETS, New Mexico MPS 123577
2008 11 24.31909 06 25 11.70 +23 15 09.7 18.8   704 – Lincoln Laboratory ETS, New Mexico MPS 266439
2008 11 24.33162 06 25 11.19 +23 15 11.6 19.8   704 – Lincoln Laboratory ETS, New Mexico MPS 266439
2008 11 24.35674 06 25 10.23 +23 15 18.6 19.8   704 – Lincoln Laboratory ETS, New Mexico MPS 266439
2008 11 24.36942 06 25 09.73 +23 15 20.9 20.0   704 – Lincoln Laboratory ETS, New Mexico MPS 266439
2008 12 02.31548 06 19 25.78 +23 45 32.8 19.0   704 – Lincoln Laboratory ETS, New Mexico MPS 267510
2008 12 02.34048 06 19 24.41 +23 45 38.5 19.6   704 – Lincoln Laboratory ETS, New Mexico MPS 267510
2008 12 02.35295 06 19 23.74 +23 45 42.0 19.7   704 – Lincoln Laboratory ETS, New Mexico MPS 267510
2008 12 02.36553 06 19 23.01 +23 45 44.2 19.8   704 – Lincoln Laboratory ETS, New Mexico MPS 267510
2008 12 30.26031 05 49 48.60 +25 22 04.2 19.5   704 – Lincoln Laboratory ETS, New Mexico MPS 270130
2008 12 30.27354 05 49 47.79 +25 22 07.1 19.5   704 – Lincoln Laboratory ETS, New Mexico MPS 270130
2008 12 30.28627 05 49 46.92 +25 22 08.9 19.4   704 – Lincoln Laboratory ETS, New Mexico MPS 270130
2008 12 30.29909 05 49 46.08 +25 22 10.2 19.5   704 – Lincoln Laboratory ETS, New Mexico MPS 270130
2008 12 30.31195 05 49 45.23 +25 22 12.5 19.3   704 – Lincoln Laboratory ETS, New Mexico MPS 270130
2009 01 16.21169 05 36 01.63 +25 57 35.0 19.7   704 – Lincoln Laboratory ETS, New Mexico MPS 272514
2009 01 16.22444 05 36 01.24 +25 57 35.8 20.5   704 – Lincoln Laboratory ETS, New Mexico MPS 272514
2009 01 16.23706 05 36 00.74 +25 57 37.0 20.1   704 – Lincoln Laboratory ETS, New Mexico MPS 272514
2009 01 16.24983 05 36 00.29 +25 57 38.7 20.4   704 – Lincoln Laboratory ETS, New Mexico MPS 272514
2009 01 16.26260 05 35 59.79 +25 57 39.6 20.2   704 – Lincoln Laboratory ETS, New Mexico MPS 272514
2010 03 18.35258 13 53 52.44 -04 44 22.9 20.8 V 691 – Steward Observatory, Kitt Peak-Spacewatch MPS 317895
2010 03 18.37024 13 53 51.77 -04 44 18.6 20.9 V 691 – Steward Observatory, Kitt Peak-Spacewatch MPS 317895
2010 03 18.38793 13 53 51.02 -04 44 14.1 20.7 V 691 – Steward Observatory, Kitt Peak-Spacewatch MPS 317895
2010 04 18.390846 13 27 59.034 -02 17 35.81 21.51 g F51 – Pan-STARRS 1, Haleakala MPS 338887
2010 04 18.399369 13 27 58.528 -02 17 33.27 21.51 g F51 – Pan-STARRS 1, Haleakala MPS 338887
2010 04 20.31279 13 26 13.77 -02 09 27.6 20.8 V G96 – Mt. Lemmon Survey MPS 323432
2010 04 20.31920 13 26 13.38 -02 09 26.3 21.2 V G96 – Mt. Lemmon Survey MPS 323432
2010 04 20.32564 13 26 13.02 -02 09 24.7 21.3 V G96 – Mt. Lemmon Survey MPS 323432
2010 04 20.33204 13 26 12.66 -02 09 23.4 21.7 V G96 – Mt. Lemmon Survey MPS 323432
2011 06 25.58083 19 58 20.34 -24 26 03.1 19.9 V D96 – Tzec Maun Observatory, Moorook MPS 386252
2011 06 25.61035 19 58 18.95 -24 26 12.2 19.9 V D96 – Tzec Maun Observatory, Moorook MPS 386252
2011 06 25.63953 19 58 17.62 -24 26 20.2 19.9 V D96 – Tzec Maun Observatory, Moorook MPS 386252
2011 06 25.66737 19 58 16.32 -24 26 28.3 19.6 V D96 – Tzec Maun Observatory, Moorook MPS 386252
2011 06 27.37888 19 56 58.30 -24 34 48.7 19.9 V G96 – Mt. Lemmon Survey MPS 386252
2011 06 27.39549 19 56 57.51 -24 34 53.5 20.0 V G96 – Mt. Lemmon Survey MPS 386252
2011 06 27.40383 19 56 57.08 -24 34 55.9 19.9 V G96 – Mt. Lemmon Survey MPS 386252
2011 07 28.34897 19 26 11.005 -26 54 10.59 19.7 i F51 – Pan-STARRS 1, Haleakala MPS 387735
2011 07 28.35911 19 26 10.360 -26 54 12.78 19.8 i F51 – Pan-STARRS 1, Haleakala MPS 387735
2011 07 28.36974 19 26 09.681 -26 54 14.90 20.2 r F51 – Pan-STARRS 1, Haleakala MPS 387735
2011 07 28.37890 19 26 09.106 -26 54 16.74 20.2 r F51 – Pan-STARRS 1, Haleakala MPS 387735
2012 09 25.48338 07 33 49.41 +21 59 56.8 20.5 V 691 – Steward Observatory, Kitt Peak-Spacewatch MPS 433996
